Regional Weather Roundup
Issued by NWS

Home | Current Version | Previous Version | Text Only | Print | Product List | Glossary On
Versions: 1 2 3 4 5 6 7 8 9 10 11 12 13 14 15 16 17 18 19 20 21 22 23 24 25 26 27 28 29 30 31 32 33 34 35 36 37 38 39 40 41 42 43 44 45 46 47 48 49 50
000
ASUS44 KJAN 280010
RWRMS

MISSISSIPPI HOURLY WEATHER ROUNDUP
NATIONAL WEATHER SERVICE JACKSON MS
600 PM CST FRI FEB 27 2015

NOTE: "FAIR: INDICATES FEW OR NO CLOUDS BELOW 12,000 FEET WITH NO
SIGNIFICANT WEATHER AND/OR OBSTRUCTIONS TO VISIBILITY.

MSZ001>002-007>008-010>013-018>021-025>028-034>036-280100-
NORTHWEST MISSISSIPPI

CITY           SKY/WX    TMP DP  RH WIND       PRES   REMARKS
CLARKSDALE     CLOUDY    28  23  80 N18G25    30.55S WCI  16
CLEVELAND      CLOUDY    31  25  80 N17       30.51S WCI  19
GREENWOOD        N/A    N/A N/A N/A MISG      30.49R
GREENVILLE     CLOUDY    31  23  72 N20       30.50S WCI  19
6HR MIN TEMP:  30; 6HR MAX TEMP:  36;

OLIVE BRANCH   CLOUDY    28  19  69 N12       30.55R WCI  18
OXFORD         CLOUDY    34  14  44 N8        30.51R WCI  27
TUNICA         CLOUDY    28  23  80 N17G25    30.58R WCI  16
$$

MSZ003>006-009-014>017-022>024-029>033-037>039-280100-
NORTHEAST MISSISSIPPI

CITY           SKY/WX    TMP DP  RH WIND       PRES   REMARKS
COLUMBUS AFB   CLEAR     37  18  45 N8        30.46R WCI  31
6HR MIN TEMP:  35; 6HR MAX TEMP:  42;

CORINTH        FAIR      36  10  35 N9        30.50R WCI  29
GOLDN TRIANGLE CLEAR     37  21  52 N7        30.44R WCI  32
STARKVILLE     FAIR      37  21  52 NW5       30.47R WCI  34
TUPELO         CLEAR     36  16  44 NE5       30.49R WCI  32
6HR MIN TEMP:  32; 6HR MAX TEMP:  40;

$$

MSZ040-058-280100-
CENTRAL MISSISSIPPI

CITY           SKY/WX    TMP DP  RH WIND       PRES   REMARKS
JACKSON INTL   PTCLDY    42  25  50 N8        30.40R
6HR MIN TEMP:  37; 6HR MAX TEMP:  48;

JACKSON HAWKNS CLEAR     40  28  62 NW9       30.41R WCI  34
6HR MIN TEMP:  37; 6HR MAX TEMP:  47; 6HR PCP: TRACE;

MERIDIAN KEY   CLEAR     42  23  46 N9        30.40R
6HR MIN TEMP:  42; 6HR MAX TEMP:  48;

MERIDIAN NAS   CLEAR     42  21  43 N6        30.41R
6HR MIN TEMP:  42; 6HR MAX TEMP:  48;

VICKSBURG      PTCLDY    34  27  75 N18       30.45S WCI  23
6HR MIN TEMP:  34; 6HR MAX TEMP:  41;

$$

MSZ059>079-280100-
SOUTH MISSISSIPPI

CITY           SKY/WX    TMP DP  RH WIND       PRES   REMARKS
BROOKHAVEN     FAIR      43  30  61 N5        30.38S
HATTIESBURG    CLEAR     48  29  47 N3        30.37R
6HR MIN TEMP:  38; 6HR MAX TEMP:  51;

MCCOMB         CLEAR     46  29  51 CALM      30.36R
6HR MIN TEMP:  39; 6HR MAX TEMP:  49;

NATCHEZ        PTCLDY    37  25  60 N10G22    30.40S WCI  30
6HR MIN TEMP:  37; 6HR MAX TEMP:  46;

PINE BELT      CLEAR     45  27  49 N3        30.37R
6HR MIN TEMP:  37; 6HR MAX TEMP:  50;

$$

MSZ080>082-280100-
COASTAL MISSISSIPPI

CITY           SKY/WX    TMP DP  RH WIND       PRES   REMARKS
BAY ST LOUIS   CLEAR     48  28  46 N8        30.33R
BILOXI         CLEAR     52  32  46 N7        30.32R
6HR MIN TEMP:  51; 6HR MAX TEMP:  57;

PASCAGOULA     CLEAR     48  33  56 N6        30.33R
6HR MIN TEMP:  48; 6HR MAX TEMP:  58;

GULFPORT       CLEAR     51  32  48 N10       30.32R
6HR MIN TEMP:  50; 6HR MAX TEMP:  56;

$$


USA.gov is the U.S. government's official web portal to all federal, state and local government web resources and services.